Погода в Адраре

Алжир     27°52′05″N   0°17′50″E
темп.,
°C
ветер,
м/с
пор.,
м/с
влажн.,
%
обл.,
%
осадки,
мм/ч
давл.,
гПа
погр.,
м
18 мая, вт
вт1801:00+35св12171365 0.0 1009337
04:00+34всв7121596 0.0 1008191
07:00+34всв714155 0.0 1010371
10:00+40вюв67965 0.0 10101096
13:00+43ю246100 0.0 10093161
16:00+44зсз48675 0.0 10065294
19:00+42сз56794 0.0 1007127
22:00+38ссв8131088 0.0 1009244
19 мая, ср
ср1901:00+36ссв815983 0.0 1008249
04:00+33св6121073 0.0 1008162
07:00+32всв5912100 0.0 1009128
10:00+39в3385 0.0 1010648
13:00+43ссв5475 0.0 10092595
16:00+43с6565 0.0 10073107
19:00+41с8107100 0.0 1007505
22:00+37ссв8141066 0.0 1009295
20 мая, чт
чт2001:00+35ссв7131198 0.0 1009270
04:00+34всв8161296 0.0 1008318
07:00+33всв7141492 0.0 1010405
10:00+39всв11111033 0.0 10101429
13:00+43св65699 0.0 10094111
16:00+43св76697 0.0 10074460
19:00+41св710670 0.0 1007393
22:00+37всв101795 0.0 1009455
21 мая, пт
пт2101:00+35всв1017104 0.0 1010448
04:00+32всв917140 0.0 1010446
07:00+31в8161742 0.0 1012442
10:00+36в911123 0.0 1012947
13:00+41всв7772 0.0 10112147
16:00+42св7755 0.0 10092945
19:00+39св71054 0.0 1008361
22:00+35всв81580 0.0 1010258
22 мая, сб
сб2201:00+32в71411100 0.0 1010278
04:00+30всв714160 0.0 1010286
07:00+28всв614204 0.0 1011282
10:00+35в781130 0.0 1011820
13:00+41св89644 0.0 10101995
16:00+42св7645 0.0 10072560
19:00+40св68578 0.0 1007162
22:00+35св61260 0.0 1008142